Hourly Data Report for October 26, 2013

All times are specified in Local Standard Time (LST). Add 1 hour to adjust for Daylight Saving Time where and when it is observed.

SAINT JOHN A
NEW BRUNSWICK

45°18'58.000" N
65°53'24.000" W
108.80 m
8104901
71609
YSJ

Download Data

Hourly Data (October 2013)
Hourly Data Report for October 26, 2013
Temp Definition
°C
Dew Point Temp Definition
°C
Rel Hum Definition
%
Wind Dir Definition
10's deg

Wind Spd Definition
km/h
Visibility Definition
km
Stn Press Definition
kPa
Hmdx Definition


Wind Chill Definition


Weather Definition


TIME
00:00 Legend Double Dagger 2.4 -1.8 74 28 11 24.1 100.16     LegendNANA
01:00 Legend Double Dagger 2.1 -1.7 76 28 13 24.1 100.20     LegendNANA
02:00 Legend Double Dagger 2.1 -1.5 77 28 14 24.1 100.21     Clear
03:00 Legend Double Dagger 1.6 -1.5 80 27 9 24.1 100.22     LegendNANA
04:00 Legend Double Dagger 1.2 -1.5 82 28 13 24.1 100.22     LegendNANA
05:00 Legend Double Dagger -2.2 -2.8 96 2 5 24.1 100.25   -4 Clear
06:00 Legend Double Dagger -2.3 -3.0 95 34 6 24.1 100.26   -5 LegendNANA
07:00 Legend Double Dagger -3.3 -3.6 98 16 1 24.1 100.34   -4 LegendNANA
08:00 Legend Double Dagger 1.7 -0.7 84 26 9 24.1 100.41     Mainly Clear
09:00 Legend Double Dagger 3.1 -1.1 74 30 14 24.1 100.45     LegendNANA
10:00 Legend Double Dagger 4.3 -1.1 68 29 10 24.1 100.44     LegendNANA
11:00 Legend Double Dagger 4.7 -2.0 62 25 15 24.1 100.44     Mostly Cloudy
12:00 Legend Double Dagger 5.9 -2.2 56 23 14 24.1 100.41     LegendNANA
13:00 Legend Double Dagger 5.3 -3.5 53 23 18 24.1 100.36     LegendNANA
14:00 Legend Double Dagger 7.0 -3.0 49 23 22 24.1 100.35     Cloudy
15:00 Legend Double Dagger 7.4 -3.5 46 22 24 24.1 100.32     LegendNANA
16:00 Legend Double Dagger 6.2 -3.5 50 22 14 24.1 100.30     LegendNANA
17:00 Legend Double Dagger 5.8 -1.8 58 20 8 24.1 100.26     Cloudy
18:00 Legend Double Dagger 6.3 2.0 74 21 15 24.1 100.20     Rain Showers
19:00 Legend Double Dagger 5.2 4.2 93 20 15 8.1 100.18     Rain,Fog
20:00 Legend Double Dagger 5.6 3.9 89 22 16 9.7 100.12     Rain Showers,Fog
21:00 Legend Double Dagger 5.2 4.3 94 26 13 9.7 100.16     Rain Showers,Fog
22:00 Legend Double Dagger 4.5 3.8 95 33 7 6.4 100.07     Rain Showers,Fog
23:00 Legend Double Dagger 4.1 3.8 98 6 6 16.1 100.02     Rain Showers

Notes on Data Quality.

Legend

  • E = Estimated
  • M = Missing
  • NA = Not Available
  • ‡ = Partner data that is not subject to review by the National Climate Archives
Date modified: